TimeCST,TemperatureF,Dew PointF,Humidity,Sea Level PressureIn,VisibilityMPH,Wind Direction,Wind SpeedMPH,Gust SpeedMPH,PrecipitationIn,Events,Conditions,WindDirDegrees,DateUTC
12:53 AM,50.0,33.1,52,29.65,10.0,South,18.4,-,N/A,,Clear,190,2013-12-19 06:53:00
1:53 AM,48.9,32.0,52,29.64,10.0,South,13.8,-,N/A,,Clear,190,2013-12-19 07:53:00
2:53 AM,48.9,32.0,52,29.62,10.0,South,18.4,-,N/A,,Clear,190,2013-12-19 08:53:00
3:53 AM,48.0,32.0,54,29.62,10.0,South,16.1,-,N/A,,Clear,190,2013-12-19 09:53:00
4:53 AM,46.9,33.1,59,29.60,10.0,South,17.3,-,N/A,,Clear,190,2013-12-19 10:53:00
5:53 AM,45.0,34.0,65,29.59,10.0,South,15.0,-,N/A,,Clear,180,2013-12-19 11:53:00
6:53 AM,44.1,34.0,68,29.61,10.0,SSW,11.5,-,N/A,,Clear,210,2013-12-19 12:53:00
7:53 AM,44.1,33.1,65,29.63,10.0,SSW,11.5,-,N/A,,Clear,210,2013-12-19 13:53:00
8:53 AM,45.0,32.0,60,29.64,10.0,SSW,9.2,-,N/A,,Clear,210,2013-12-19 14:53:00
9:53 AM,48.0,28.0,46,29.63,10.0,SW,9.2,-,N/A,,Clear,220,2013-12-19 15:53:00
10:53 AM,52.0,25.0,35,29.63,10.0,WSW,9.2,-,N/A,,Clear,240,2013-12-19 16:53:00
11:53 AM,55.9,24.1,29,29.62,10.0,WSW,10.4,-,N/A,,Clear,240,2013-12-19 17:53:00
12:53 PM,60.1,21.9,23,29.59,10.0,Variable,4.6,-,N/A,,Clear,0,2013-12-19 18:53:00
1:53 PM,64.0,24.1,22,29.56,10.0,SSW,10.4,-,N/A,,Clear,200,2013-12-19 19:53:00
2:53 PM,64.9,23.0,20,29.54,10.0,SSW,11.5,-,N/A,,Clear,210,2013-12-19 20:53:00
3:53 PM,66.9,27.0,22,29.51,10.0,SSE,15.0,-,N/A,,Clear,160,2013-12-19 21:53:00
4:53 PM,61.0,33.1,35,29.53,10.0,South,11.5,-,N/A,,Clear,180,2013-12-19 22:53:00
5:53 PM,57.0,33.1,40,29.53,10.0,South,16.1,-,N/A,,Clear,180,2013-12-19 23:53:00
6:53 PM,55.0,32.0,42,29.55,10.0,South,16.1,-,N/A,,Clear,180,2013-12-20 00:53:00
7:53 PM,55.0,35.1,47,29.55,10.0,South,18.4,-,N/A,,Clear,180,2013-12-20 01:53:00
8:53 PM,52.0,36.0,54,29.56,10.0,South,19.6,-,N/A,,Clear,180,2013-12-20 02:53:00
9:53 PM,50.0,35.1,57,29.59,10.0,South,12.7,-,N/A,,Clear,190,2013-12-20 03:53:00
10:53 PM,51.1,30.0,44,29.59,10.0,SSW,15.0,-,N/A,,Clear,200,2013-12-20 04:53:00
11:53 PM,36.0,30.0,79,29.71,10.0,North,20.7,28.8,N/A,,Clear,360,2013-12-20 05:53:00